• In Austria
  • List of Countries
  • For 7 days
  • Water Temperature
  • Satellite Maps
  • Weather Map
  • News
  • Weather Widgets
  • user-avatar
    Login

    Hourly Weather Korçe

    Today, 24 September, Monday

    Time Temperature Precipitation Wind Pressure Humidity
    00:00 +16°C° 0 mm 1 mps 669 mmHg 68%
    01:00 +16°C° 0 mm 1 mps 669 mmHg 72%
    02:00 +15°C° 0 mm 1 mps 669 mmHg 74%
    03:00 +15°C° 0 mm 1 mps 669 mmHg 76%
    04:00 +15°C° 0 mm 1 mps 668 mmHg 78%
    05:00 +15°C° 0 mm 1 mps 668 mmHg 75%
    06:00 +16°C° 0 mm 1 mps 669 mmHg 71%
    07:00 +19°C° 0 mm 1 mps 669 mmHg 66%
    08:00 +19°C° 0 mm 2 mps 669 mmHg 57%
    09:00 +21°C° 0 mm 2 mps 669 mmHg 48%
    10:00 +24°C° 0 mm 2 mps 669 mmHg 38%
    11:00 +25°C° 0 mm 2 mps 669 mmHg 37%
    12:00 +25°C° 0 mm 3 mps 669 mmHg 35%
    13:00 +26°C° 0 mm 3 mps 669 mmHg 34%
    14:00 +25°C° 0 mm 3 mps 669 mmHg 37%
    15:00 +25°C° 0 mm 3 mps 668 mmHg 41%
    16:00 +24°C° 0 mm 3 mps 668 mmHg 45%
    17:00 +21°C° 0 mm 2 mps 668 mmHg 55%
    18:00 +19°C° 0 mm 2 mps 668 mmHg 65%
    19:00 +18°C° 0 mm 1 mps 668 mmHg 75%
    20:00 +16°C° 0 mm 1 mps 668 mmHg 77%
    21:00 +16°C° 0 mm 2 mps 669 mmHg 80%
    22:00 +15°C° 0 mm 2 mps 669 mmHg 83%
    23:00 +14°C° 0 mm 2 mps 669 mmHg 81%

    Tomorrow, 25 September, Tuesday

    Time Temperature Precipitation Wind Pressure Humidity
    00:00 +13°C° 0 mm 2 mps 669 mmHg 79%
    01:00 +13°C° 0 mm 2 mps 669 mmHg 77%
    02:00 +12°C° 0 mm 2 mps 669 mmHg 74%
    03:00 +10°C° 0 mm 3 mps 669 mmHg 71%
    04:00 +10°C° 0 mm 3 mps 669 mmHg 68%
    05:00 +10°C° 0 mm 3 mps 670 mmHg 64%
    06:00 +10°C° 0 mm 3 mps 670 mmHg 59%
    07:00 +10°C° 0 mm 3 mps 670 mmHg 55%
    08:00 +12°C° 0 mm 3 mps 671 mmHg 49%
    09:00 +14°C° 0 mm 3 mps 672 mmHg 44%
    10:00 +17°C° 0 mm 3 mps 672 mmHg 38%
    11:00 +18°C° 0 mm 3 mps 672 mmHg 36%
    12:00 +19°C° 0 mm 3 mps 673 mmHg 34%
    13:00 +20°C° 0 mm 3 mps 673 mmHg 32%
    14:00 +19°C° 0 mm 3 mps 673 mmHg 33%
    15:00 +19°C° 0 mm 3 mps 672 mmHg 33%
    16:00 +18°C° 0 mm 4 mps 672 mmHg 33%
    17:00 +16°C° 0 mm 3 mps 672 mmHg 34%
    18:00 +13°C° 0 mm 3 mps 672 mmHg 36%
    19:00 +11°C° 0 mm 3 mps 672 mmHg 37%
    20:00 +10°C° 0 mm 3 mps 672 mmHg 38%
    21:00 +9°C° 0 mm 3 mps 673 mmHg 39%
    22:00 +9°C° 0 mm 3 mps 673 mmHg 40%
    23:00 +8°C° 0 mm 3 mps 673 mmHg 42%

    Day after tomorrow, 26 September, Wednesday

    Time Temperature Precipitation Wind Pressure Humidity
    00:00 +7°C° 0 mm 3 mps 673 mmHg 44%
    01:00 +5°C° 0 mm 3 mps 672 mmHg 46%
    02:00 +4°C° 0 mm 3 mps 672 mmHg 48%
    03:00 +4°C° 0 mm 3 mps 672 mmHg 50%
    04:00 +3°C° 0 mm 3 mps 672 mmHg 52%
    05:00 +4°C° 0 mm 3 mps 673 mmHg 51%
    06:00 +4°C° 0 mm 3 mps 673 mmHg 49%
    07:00 +5°C° 0 mm 4 mps 674 mmHg 48%
    08:00 +7°C° 0 mm 4 mps 674 mmHg 42%
    09:00 +10°C° 0 mm 4 mps 675 mmHg 37%
    10:00 +12°C° 0 mm 5 mps 676 mmHg 31%
    11:00 +12°C° 0 mm 5 mps 675 mmHg 29%
    12:00 +13°C° 0 mm 5 mps 675 mmHg 26%
    13:00 +14°C° 0 mm 5 mps 675 mmHg 24%
    14:00 +13°C° 0 mm 5 mps 675 mmHg 23%
    15:00 +13°C° 0 mm 5 mps 675 mmHg 23%
    16:00 +12°C° 0 mm 4 mps 675 mmHg 23%
    17:00 +11°C° 0 mm 4 mps 675 mmHg 26%
    18:00 +9°C° 0 mm 3 mps 675 mmHg 30%
    19:00 +7°C° 0 mm 3 mps 675 mmHg 33%
    20:00 +5°C° 0 mm 3 mps 675 mmHg 36%
    21:00 +5°C° 0 mm 3 mps 675 mmHg 39%
    22:00 +4°C° 0 mm 3 mps 675 mmHg 42%
    23:00 +5°C° 0 mm 2 mps 675 mmHg 45%

    27 September, Thursday

    Time Temperature Precipitation Wind Pressure Humidity
    00:00 +4°C° 0 mm 2 mps 674 mmHg 48%
    01:00 +4°C° 0 mm 2 mps 674 mmHg 51%
    02:00 +3°C° 0 mm 2 mps 674 mmHg 52%
    03:00 +3°C° 0 mm 2 mps 673 mmHg 54%
    04:00 +3°C° 0 mm 2 mps 673 mmHg 56%
    05:00 +4°C° 0 mm 2 mps 673 mmHg 52%
    06:00 +5°C° 0 mm 2 mps 673 mmHg 49%
    07:00 +6°C° 0 mm 2 mps 673 mmHg 45%
    08:00 +8°C° 0 mm 3 mps 674 mmHg 38%
    09:00 +10°C° 0 mm 3 mps 674 mmHg 31%
    10:00 +12°C° 0 mm 4 mps 674 mmHg 23%
    11:00 +13°C° 0 mm 4 mps 673 mmHg 21%
    12:00 +14°C° 0 mm 5 mps 673 mmHg 20%
    13:00 +15°C° 0 mm 5 mps 673 mmHg 18%
    14:00 +15°C° 0 mm 5 mps 672 mmHg 19%
    15:00 +15°C° 0 mm 4 mps 672 mmHg 20%
    16:00 +15°C° 0 mm 4 mps 671 mmHg 20%
    17:00 +13°C° 0 mm 4 mps 671 mmHg 24%
    18:00 +11°C° 0 mm 3 mps 670 mmHg 27%
    19:00 +8°C° 0 mm 3 mps 670 mmHg 30%
    20:00 +8°C° 0 mm 3 mps 670 mmHg 33%
    21:00 +7°C° 0 mm 3 mps 669 mmHg 35%
    22:00 +7°C° 0 mm 2 mps 669 mmHg 38%
    23:00 +6°C° 0 mm 2 mps 669 mmHg 40%

    28 September, Friday

    Time Temperature Precipitation Wind Pressure Humidity
    00:00 +6°C° 0 mm 2 mps 668 mmHg 42%
    01:00 +6°C° 0 mm 2 mps 668 mmHg 45%
    02:00 +6°C° 0 mm 2 mps 668 mmHg 45%
    03:00 +6°C° 0 mm 2 mps 668 mmHg 45%
    04:00 +6°C° 0 mm 2 mps 667 mmHg 45%
    05:00 +7°C° 0 mm 2 mps 668 mmHg 44%
    06:00 +7°C° 0 mm 2 mps 668 mmHg 42%
    07:00 +8°C° 0 mm 3 mps 668 mmHg 41%
    08:00 +10°C° 0 mm 3 mps 668 mmHg 36%
    09:00 +12°C° 0 mm 3 mps 669 mmHg 32%
    10:00 +14°C° 0 mm 3 mps 669 mmHg 28%
    11:00 +16°C° 0 mm 3 mps 669 mmHg 29%
    12:00 +17°C° 0 mm 3 mps 669 mmHg 30%
    13:00 +18°C° 0 mm 3 mps 669 mmHg 32%
    14:00 +17°C° 0 mm 3 mps 668 mmHg 34%
    15:00 +17°C° 0 mm 3 mps 668 mmHg 36%
    16:00 +17°C° 0 mm 2 mps 668 mmHg 38%
    17:00 +15°C° 0 mm 2 mps 668 mmHg 43%
    18:00 +14°C° 0 mm 2 mps 667 mmHg 48%
    19:00 +12°C° 0 mm 2 mps 667 mmHg 52%
    20:00 +10°C° 0 mm 2 mps 667 mmHg 56%
    21:00 +10°C° 0 mm 2 mps 667 mmHg 60%
    22:00 +9°C° 0 mm 2 mps 667 mmHg 64%
    23:00 +8°C° 0 mm 2 mps 666 mmHg 65%

    29 September, Saturday

    Time Temperature Precipitation Wind Pressure Humidity
    00:00 +8°C° 0 mm 2 mps 666 mmHg 66%
    01:00 +8°C° 0 mm 2 mps 666 mmHg 68%
    02:00 +8°C° 0 mm 1 mps 666 mmHg 66%
    03:00 +8°C° 0 mm 1 mps 665 mmHg 65%
    04:00 +8°C° 0 mm 1 mps 665 mmHg 63%
    05:00 +9°C° 0 mm 1 mps 666 mmHg 59%
    06:00 +10°C° 0 mm 1 mps 666 mmHg 56%
    07:00 +11°C° 0 mm 1 mps 666 mmHg 52%
    08:00 +14°C° 0 mm 1 mps 667 mmHg 45%
    09:00 +16°C° 0 mm 1 mps 668 mmHg 37%
    10:00 +19°C° 0 mm 1 mps 668 mmHg 30%
    11:00 +19°C° 0 mm 2 mps 668 mmHg 29%
    12:00 +20°C° 0 mm 2 mps 668 mmHg 27%
    13:00 +20°C° 0 mm 2 mps 668 mmHg 26%
    14:00 +20°C° 0 mm 2 mps 668 mmHg 27%
    15:00 +20°C° 0 mm 3 mps 668 mmHg 29%
    16:00 +19°C° 0 mm 3 mps 668 mmHg 30%
    17:00 +17°C° 0 mm 2 mps 668 mmHg 35%
    18:00 +15°C° 0 mm 2 mps 667 mmHg 40%
    19:00 +13°C° 0 mm 1 mps 667 mmHg 45%
    20:00 +12°C° 0 mm 1 mps 667 mmHg 46%
    21:00 +12°C° 0 mm 1 mps 668 mmHg 46%
    22:00 +11°C° 0 mm 1 mps 668 mmHg 47%
    23:00 +11°C° 0 mm 1 mps 668 mmHg 47%
    Show more